Other Surface Observations
Issued by NWS

Home | Current Version | Previous Version | Text Only | Print | Product List | Glossary On
Versions: 1 2 3 4 5 6 7 8 9 10 11 12 13 14 15 16 17 18 19 20 21 22 23 24 25 26 27 28 29 30 31 32 33 34 35 36 37 38 39 40 41 42 43 44 45 46 47 48 49 50
000
SXUS52 KTAE 281118
OSOTAE
OSOTAE
North Florida/South Alabama/Southwest Georgia Weather Roundup
National Weather Service Tallahassee Florida
700 AM EDT TUE JUL 28 2015

Note: "fair" indicates few or no clouds below 12,000 feet with no
significant weather and/or obstructions to visibility.

!FLZ017-115-028-034-025-281200
...North Florida...

CITY           SKY/WX    TMP DP  RH WIND       PRES   REMARKS
TALLAHASSEE    PTCLDY    76  74  93 CALM      29.95R
APALACHICOLA   MOCLDY    79  76  90 N3        29.94R
PERRY          MOCLDY    74  74 100 N3        29.95S FOG
CROSS CITY       N/A     76  75  97 CALM      29.93R
JACKSONVILLE   MOCLDY    74  73  97 CALM      29.94R
$$

!FLZ112-006-005-002-011-281200
...Florida Panhandle...

CITY           SKY/WX    TMP DP  RH WIND       PRES   REMARKS
MARIANNA       PTCLDY    76  75  97 CALM      29.96R
BONIFAY        FAIR      75  74  96 CALM      29.97R
PANAMA CITY NW FAIR      77  74  90 CALM      29.95R
TYNDALL AFB    MOCLDY    77  74  89 CALM      29.96R
TYND DRONE APT PTSUNNY   76  75  96 NW3       29.95R
DE FUNIAK SPR  FAIR      75  72  89 NW6       29.97R
EGLIN AFB      PTCLDY    77  71  83 NW2       29.96R
DESTIN         CLEAR     80  73  79 N6        29.96R
HURLBURT       CLEAR     77  72  85 N3        29.95R
CRESTVIEW      CLEAR     72  71  97 CALM      29.98R FOG
PENSACOLA      CLEAR     79  72  79 NW5       29.97R
$$

!ALZ063-066-281200
...South Alabama...

CITY           SKY/WX    TMP DP  RH WIND       PRES   REMARKS
DOTHAN         CLEAR     76  73  91 NW6       30.00R
OZARK CAIRNS   CLEAR     75  73  94 NW3       29.97R
FT RUCKER HELI CLEAR     74  71  91 CALM      29.96R FOG
RUCKER HELI 3  FAIR      75  73  95 N2        29.98R
RUCKER HELI 2  FAIR      74  74 100 CALM      29.96R
FLORALA APT    PTCLDY    74  71  91 CALM      29.99R
ANDALUSIA      PTCLDY    79  73  82 CALM      29.97R
TROY           CLEAR     73  71  93 CALM      29.98R
EUFALA         FAIR      74  72  93 CALM      29.96R FOG
MOBILE         PTCLDY    77  74  90 NW3       29.99R
$$

!GAZ120>161-281200
...Southwest and South Central Georgia...

CITY           SKY/WX    TMP DP  RH WIND       PRES   REMARKS
THOMASVILLE    FAIR      72  72 100 CALM      29.98R
BAINBRIDGE     CLEAR     79  77  94 CALM      29.97R
MOODY AFB      PTCLDY    74  73  95 N1        29.96R
VALDOSTA       CLOUDY    75  75 100 N3        29.97R FOG
MOULTRIE       PTCLDY    73  72  94 CALM      29.98R
BLAKELY        CLEAR     75  73  94 CALM      29.97R
ALBANY         CLEAR     74  72  93 CALM      29.98R
TIFTON         FAIR      73  72  98 CALM      29.97R
FITZGERALD     FOG       73  72  96 CALM      29.99R VSB<1/4
CORDELE        FAIR      75  74  95 CALM      29.98R
AMERICUS       FAIR      72  72 100 CALM      29.99R
HOMERVILLE     FOG       77  77 100 CALM      29.97R VSB 1/4
$$

!GMZ750-755-770-775-281200
...Coastal and Buoy Obs...

STATION/POSITION TIME  TEMP    WIND        PRES    VSBY  WAVE
                       AIR SEA DIR/SP/G                  HT/PER
                 (UTC) (F)     (DEG/KT/KT) (MB)    (MI)  (FT/S)
KEATON BEACH     1100   75      40/  2/  3 1013.9R
CEDAR KEY        1100   77      50/  5/  6 1014.2R
C TOWER          1100   83     350/  7/  7 1013.8R
APALACHICOLA BUO 1050   86 85  300/ 16/ 17 1013.2R         3/ 4
PANAMA CITY BUOY 1050   86 86  290/ 12/ 14 1014.7R         1/ 3
MOBILE BUOY      1050   85 87  310/  6/  8 1015.2R         1
ORANGE BCH AL BU 1050   83 84  330/  8/ 10 1014.2R         1
$$



USA.gov is the U.S. government's official web portal to all federal, state and local government web resources and services.